カタログに戻る

THORAD DELTA 1 DEB

運用中SSO
NORAD 8158·DEBRIS·🇺🇸 United States

打ち上げ Nov 15, 1974 から Vandenberg Space Force Base

Loading…

次のパス (今後24時間)

TLE

最新Source: Space-Track

元期: Sep 14, 2026, 04:07 UTC

1 08158U 74089Y   26257.17203878  .00000009  00000-0  29681-3 0  9996
2 08158 101.3993 324.8363 0062026  40.9363 344.2182 12.61689907384952

AllMySatでTHORAD DELTA 1 DEBをリアルタイム追跡

Download on the App Store